星链-5683 (STARLINK-5683 )

导读

STARLINK-5683是美国SpaceX公司星链(Starlink)星座的一员,于2023年2月2日发射。它属于第二代星链组网卫星,运行在近地轨道,搭载Ku/Ka相控阵天线与激光星间通信设备,依托自主避撞和霍尔推进系统,为全球提供低时延高速卫星互联网服务,同时也具备潜在的军事应用潜力,是SpaceX构建巨型全球星座的重要组成部分,单颗卫星寿命约5-7年,制造成本得到有效控制。

基本信息
目录编号:
55452
目录名称:
STARLINK-5683
国际标识:
2023-015D
轨道中心:
EARTH
卫星名称:
星链-5683
卫星全名:
星链-5683 (STARLINK-5683 )
卫星状态:
在轨 (已飞行1228 天)
发射日期:
2023-02-02 UTC
国别 :
美国 (US)
星等 :
--
轨道信息
数据来源 国际轨道数据 AOE轨道数据
星历时间 2026-06-14T23:18:45+0800
6小时前
查看轨道信息
2026-06-15T00:00:00+0800
6小时前
查看轨道信息
半长轴 6861.211km 6861.203km
偏心率 0.0000922 0.0001267
轨道倾角 43.001° 43.002°
近地点辐角 287.369° 290.118°
升交点赤经 141.664° 141.511°
平近点角 72.707° 227.665°
近地点 482.441km 482.196km
远地点 483.707km 483.936km
周期 94.267分钟 94.267分钟
每日圈数 15.275718 15.275745
详细信息
固有亮度:
5
最大亮度:
2.5
卫星平台:
Starlink v1.5
覆盖范围:
全球
运营商:
太空探索技术公司
运营商所在国:
美国
制造商(研发单位):
太空探索技术公司
制造商所在国:
美国
使用方式:
暂无
卫星简介
星链(Starlink)计划是由太空探索技术公司(SpaceX)提出的一个巨型低轨卫星互联网星座项目,计划在2019年至2024年间在太空搭建由约1.2万颗卫星组成的“星链”网络,其中1584颗将部署在地球上空550千米处的近地轨道,并从2020年开始工作。该卫星仍在工作。
2D轨道图
3D轨道图
轨道高度分析图
轨道倾角分析图
轨道综合分析图
查看轨道综合分析图